2020-081B (46906 NORAD) Tracking and Keplerian Element Data

This shows tracking and keplerian element data for the satellite.

Feedback or suggestion? Click here.




ElementValue
Catalog46906
Name2020-081B
Epoch Orbit231
Epoch Day327.83469538
Epoch Year2020
RAAN8.5863
Inclination36.908
Eccentricity0.0006684
Argument of Perigee83.6262
Mean Anonmoly276.5243
Mean Motion14.98482462
Decay Rate1.8E-06
L11 46906U 20081B 20327.83469538 .00000180 00000-0 21162-4 0 9991
L22 46906 36.9080 8.5863 0006684 83.6262 276.5243 14.98482462 2317

Live tracking and technical data element details for 2020-081B (NORAD 46906). 2020-081B can be tracked NOW for your location showing map with azimuth and elevation plus other details from your city location.

Track the satellite on the map from your city or location and see movement details for azimuth, elevation, latitude, longitude, range, height, and movement on the map or in text.







IsCatalogInMostPopularTable: catalog: 46906, numindb: 4
Update: records affected: 1



GetName: 46906 2020-081B

Hit Count: updated at: Tue, 24 Nov 2020 11:49:11 GMT